User: anonymous   Login
Location: Cluny
(50.9333°N, 112.8167°W)
Time: 03:49:51
(UTC-06:00)
Language:

Cosmos 1743 Rocket - Orbit

View from above orbital plane
View from above orbital plane
View from above satellite
View from above satellite

Ground track
Ground track

The orbit data is extracted from the following two-line orbital elements,

1 16720U 86034B   15109.88012642  .00000735  00000-0  87169-4 0  9994
2 16720 082.5530 257.2530 0020335 180.9196 339.4696 14.83042525562267
Epoch (UTC): 19 April 2015 21:07:22
Eccentricity: 0.0020335
inclination: 82.5530°
perigee height: 605 km
apogee height: 634 km
right ascension of ascending node: 257.2530°
argument of perigee: 180.9196°
revolutions per day: 14.83042525
mean anomaly at epoch: 339.4696°
orbit number at epoch: 56226

The dashed part of the orbit path shows where the satellite is in the earth's shadow,  

DLR